Hourly Data Report for May 27, 2022

STONY RAPIDS
SASKATCHEWAN
Current Station Operator: NAVCAN

59°15'01.000" N
105°50'29.000" W
244.20 m
4067799
71132
YSF

Download Data

Hourly Data (May 2022)
Hourly Data Report for May 27, 2022
TIME
LST
Temp Definition
°C
Dew Point Definition
°C
Rel Hum Definition
%
Precip. Amount Definition
mm

Wind Dir Definition
10's deg

Wind Spd Definition
km/h
Visibility Definition
km
Stn Press Definition
kPa
Hmdx Definition


Wind Chill Definition


Weather Definition


00:00 7.0 2.1 71 0.0 16 11 16.1 98.40     LegendNANA
01:00 6.6 2.1 73 0.0 9 5 16.1 98.39     LegendNANA
02:00 6.3 1.8 73 0.0 14 8 16.1 98.40     LegendNANA
03:00 5.3 1.7 77 0.0 13 5 16.1 98.39     LegendNANA
04:00 4.0 1.2 82 0.0 9 9 16.1 98.38     LegendNANA
05:00 1.8 0.7 92 0.0 9 8 16.1 98.38     LegendNANA
06:00 3.3 1.0 85 0.0 9 13 16.1 98.39     LegendNANA
07:00 4.9 1.5 79 0.0 9 13 16.1 98.37     LegendNANA
08:00 7.1 1.7 69 0.0 10 15 16.1 98.34     LegendNANA
09:00 7.7 1.5 65 0.0 14 15 16.1 98.30     LegendNANA
10:00 8.5 1.6 62 0.0 13 15 16.1 98.27     LegendNANA
11:00 10.1 2.1 57 0.0 10 15 16.1 98.20     LegendNANA
12:00 11.0 2.0 54 0.0 12 15 16.1 98.13     LegendNANA
13:00 12.5 2.8 51 0.0 17 17 16.1 98.09     LegendNANA
14:00 10.8 4.3 64 0.0 13 11 16.1 98.06     Rain
15:00 12.4 3.6 55 0.0 13 17 16.1 97.99     LegendNANA
16:00 12.9 5.2 59 0.0 15 13 16.1 97.94     LegendNANA
17:00 13.5 5.6 59 0.0 7 13 16.1 97.87     LegendNANA
18:00 14.6 5.4 54 0.0 9 13 16.1 97.81     LegendNANA
19:00 14.3 4.9 53 0.0 8 18 16.1 97.76     LegendNANA
20:00 14.2 4.6 52 0.0 10 18 16.1 97.73     LegendNANA
21:00 12.6 4.4 57 0.0 10 15 16.1 97.72     LegendNANA
22:00 10.2 4.1 66 0.0 10 8 16.1 97.71     LegendNANA
23:00 8.0 3.5 73 0.0 11 9 16.1 97.69     LegendNANA

Notes on Data Quality.

Legend

  • E = Estimated
  • M = Missing
  • NA = Not Available*
  • [empty] = Indicates an unobserved value
Date modified: